| time (UTC) | temp F | wind direction | speed MPH | gust MPH | rain 1hr in | rain 24hr in | rain mn in | humidity % | barometer mb |
| 20260504100505 | 48 | 83 | 0.0 | 1.0 | 0.00 | 0.00 | 0.00 | 87 | 987.0 |
| 20260504082005 | 51 | 105 | 0.0 | 1.0 | 0.00 | 0.00 | 0.00 | 83 | 987.2 |
| 20260504081505 | 51 | 110 | 0.0 | 1.0 | 0.00 | 0.00 | 0.00 | 83 | 987.2 |
| 20260504081005 | 51 | 89 | 0.0 | 1.0 | 0.00 | 0.00 | 0.00 | 83 | 987.3 |
| 20260504080504 | 51 | 73 | 0.0 | 1.0 | 0.00 | 0.00 | 0.00 | 84 | 987.4 |
| 20260504050504 | 52 | 105 | 0.0 | 1.0 | 0.00 | 0.00 | 0.00 | 78 | 988.4 |
| 20260504050005 | 53 | 94 | 0.0 | 1.0 | 0.00 | 0.00 | 0.00 | 77 | 988.5 |
| 20260504045504 | 53 | 103 | 0.0 | 1.0 | 0.00 | 0.00 | 0.00 | 78 | 988.5 |
| 20260504044505 | 53 | 84 | 0.0 | 1.0 | 0.00 | 0.00 | 0.00 | 76 | 988.4 |
| 20260504044004 | 53 | 98 | 0.0 | 2.0 | 0.00 | 0.00 | 0.00 | 75 | 988.5 |
| 20260504043504 | 54 | 97 | 1.0 | 2.0 | 0.00 | 0.00 | 0.00 | 74 | 988.5 |
| 20260504043005 | 54 | 88 | 0.0 | 1.0 | 0.00 | 0.00 | 0.00 | 75 | 988.5 |
| 20260504042504 | 54 | 92 | 0.0 | 1.0 | 0.00 | 0.00 | 0.00 | 73 | 988.5 |
| 20260504042004 | 54 | 106 | 0.0 | 1.0 | 0.00 | 0.00 | 0.00 | 73 | 988.6 |
| 20260504041504 | 54 | 77 | 0.0 | 2.0 | 0.00 | 0.00 | 0.00 | 71 | 988.6 |
| 20260504041004 | 54 | 81 | 0.0 | 1.0 | 0.00 | 0.00 | 0.00 | 72 | 988.5 |
| 20260504040504 | 54 | 123 | 0.0 | 1.0 | 0.00 | 0.00 | 0.00 | 71 | 988.6 |
| 20260504040004 | 55 | 109 | 0.0 | 1.0 | 0.00 | 0.00 | 0.00 | 73 | 988.6 |
| 20260504035504 | 55 | 99 | 0.0 | 1.0 | 0.00 | 0.00 | 0.00 | 72 | 988.7 |
| 20260504035004 | 55 | 101 | 0.0 | 1.0 | 0.00 | 0.00 | 0.00 | 72 | 988.7 |
| 20260504034504 | 55 | 87 | 0.0 | 2.0 | 0.00 | 0.00 | 0.00 | 72 | 988.7 |
| 20260504033504 | 55 | 126 | 0.0 | 1.0 | 0.00 | 0.00 | 0.00 | 72 | 988.6 |
| 20260504033004 | 55 | 123 | 0.0 | 1.0 | 0.00 | 0.00 | 0.00 | 73 | 988.6 |
| 20260504032504 | 55 | 88 | 0.0 | 1.0 | 0.00 | 0.00 | 0.00 | 72 | 988.6 |
| 20260504032004 | 55 | 77 | 0.0 | 1.0 | 0.00 | 0.00 | 0.00 | 71 | 988.7 |
| 20260504031505 | 55 | 87 | 0.0 | 1.0 | 0.00 | 0.00 | 0.00 | 73 | 988.8 |
| 20260504031003 | 55 | 137 | 0.0 | 1.0 | 0.00 | 0.00 | 0.00 | 72 | 988.9 |
| 20260504030504 | 55 | 102 | 0.0 | 2.0 | 0.00 | 0.00 | 0.00 | 72 | 988.9 |
| 20260504030004 | 55 | 93 | 0.0 | 1.0 | 0.00 | 0.00 | 0.00 | 74 | 988.9 |
| 20260504025503 | 54 | 150 | 0.0 | 1.0 | 0.00 | 0.00 | 0.00 | 74 | 988.9 |
| 20260504025005 | 54 | 152 | 0.0 | 1.0 | 0.00 | 0.00 | 0.00 | 73 | 988.9 |
| 20260504024503 | 54 | 137 | 0.0 | 1.0 | 0.00 | 0.00 | 0.00 | 72 | 989.0 |
| 20260504024003 | 54 | 111 | 0.0 | 1.0 | 0.00 | 0.00 | 0.00 | 73 | 988.9 |
| 20260504023504 | 54 | 146 | 0.0 | 0.0 | 0.00 | 0.00 | 0.00 | 74 | 988.8 |
| 20260504023004 | 54 | 148 | 0.0 | 1.0 | 0.00 | 0.00 | 0.00 | 75 | 988.7 |
| 20260504022504 | 54 | 124 | 0.0 | 1.0 | 0.00 | 0.00 | 0.00 | 75 | 988.7 |
| 20260504022004 | 54 | 131 | 0.0 | 1.0 | 0.00 | 0.00 | 0.00 | 74 | 988.7 |
| 20260504021504 | 54 | 124 | 0.0 | 1.0 | 0.00 | 0.00 | 0.00 | 74 | 988.6 |
| 20260504021005 | 54 | 156 | 0.0 | 1.0 | 0.00 | 0.00 | 0.00 | 74 | 988.6 |
| 20260504020504 | 54 | 163 | 0.0 | 1.0 | 0.00 | 0.00 | 0.00 | 74 | 988.5 |
| 20260504020005 | 54 | 165 | 0.0 | 1.0 | 0.00 | 0.00 | 0.00 | 74 | 988.5 |
| 20260504015506 | 54 | 151 | 0.0 | 1.0 | 0.00 | 0.00 | 0.00 | 74 | 988.5 |
| 20260504015005 | 55 | 193 | 0.0 | 1.0 | 0.00 | 0.00 | 0.00 | 74 | 988.5 |
| 20260504014505 | 55 | 157 | 0.0 | 1.0 | 0.00 | 0.00 | 0.00 | 73 | 988.4 |
| 20260504014006 | 55 | 154 | 0.0 | 1.0 | 0.00 | 0.00 | 0.00 | 72 | 988.4 |
| 20260504013505 | 56 | 182 | 0.0 | 1.0 | 0.00 | 0.00 | 0.00 | 72 | 988.4 |
| 20260504013005 | 56 | 176 | 0.0 | 1.0 | 0.00 | 0.00 | 0.00 | 70 | 988.4 |
| 20260504012505 | 56 | 180 | 0.0 | 1.0 | 0.00 | 0.00 | 0.00 | 68 | 988.4 |
| 20260504012005 | 57 | 162 | 1.0 | 1.0 | 0.00 | 0.00 | 0.00 | 68 | 988.3 |
| 20260504010506 | 58 | 151 | 0.0 | 1.0 | 0.00 | 0.00 | 0.00 | 64 | 988.4 |
| 20260504005505 | 60 | 148 | 0.0 | 1.0 | 0.00 | 0.00 | 0.00 | 62 | 988.3 |
| 20260504005004 | 60 | 146 | 0.0 | 1.0 | 0.00 | 0.00 | 0.00 | 61 | 988.3 |
| 20260504004505 | 61 | 151 | 0.0 | 0.0 | 0.00 | 0.00 | 0.00 | 59 | 988.4 |
| 20260504004005 | 61 | 151 | 0.0 | 1.0 | 0.00 | 0.00 | 0.00 | 57 | 988.3 |
| 20260504003504 | 62 | 143 | 0.0 | 1.0 | 0.00 | 0.00 | 0.00 | 57 | 988.3 |
| 20260504003005 | 63 | 171 | 0.0 | 1.0 | 0.00 | 0.00 | 0.00 | 56 | 988.3 |
| 20260504002506 | 64 | 186 | 0.0 | 1.0 | 0.00 | 0.00 | 0.00 | 54 | 988.4 |
| 20260504002005 | 64 | 130 | 0.0 | 1.0 | 0.00 | 0.00 | 0.00 | 54 | 988.4 |
| 20260504001005 | 65 | 157 | 0.0 | 1.0 | 0.00 | 0.00 | 0.00 | 50 | 988.5 |
| 20260504000505 | 65 | 264 | 0.0 | 1.0 | 0.00 | 0.00 | 0.00 | 44 | 988.5 |
| 20260503234506 | 66 | 240 | 1.0 | 3.0 | 0.00 | 0.00 | 0.00 | 40 | 988.6 |
| 20260503234004 | 66 | 269 | 1.0 | 2.0 | 0.00 | 0.00 | 0.00 | 42 | 988.6 |
| 20260503233005 | 67 | 251 | 1.0 | 3.0 | 0.00 | 0.00 | 0.00 | 38 | 988.5 |
| 20260503232505 | 67 | 251 | 1.0 | 5.0 | 0.00 | 0.00 | 0.00 | 40 | 988.5 |
| 20260503232004 | 67 | 218 | 2.0 | 5.0 | 0.00 | 0.00 | 0.00 | 38 | 988.5 |
| 20260503231005 | 67 | 240 | 1.0 | 2.0 | 0.00 | 0.00 | 0.00 | 36 | 988.5 |
| 20260503230505 | 67 | 304 | 1.0 | 3.0 | 0.00 | 0.00 | 0.00 | 36 | 988.6 |
| 20260503230004 | 67 | 296 | 2.0 | 3.0 | 0.00 | 0.00 | 0.00 | 37 | 988.6 |
| 20260503225505 | 68 | 247 | 1.0 | 3.0 | 0.00 | 0.00 | 0.00 | 38 | 988.7 |
| 20260503225005 | 68 | 290 | 2.0 | 3.0 | 0.00 | 0.00 | 0.00 | 38 | 988.7 |
| 20260503224505 | 68 | 312 | 2.0 | 3.0 | 0.00 | 0.00 | 0.00 | 39 | 988.8 |
| 20260503224005 | 68 | 200 | 1.0 | 3.0 | 0.00 | 0.00 | 0.00 | 39 | 988.9 |
| 20260503223505 | 68 | 257 | 1.0 | 6.0 | 0.00 | 0.00 | 0.00 | 40 | 989.0 |
| 20260503222505 | 68 | 329 | 2.0 | 5.0 | 0.00 | 0.00 | 0.00 | 38 | 989.2 |
| 20260503222005 | 68 | 257 | 2.0 | 8.0 | 0.00 | 0.00 | 0.00 | 38 | 989.3 |
| 20260503221504 | 68 | 309 | 2.0 | 5.0 | 0.00 | 0.00 | 0.00 | 38 | 989.3 |
| 20260503221005 | 68 | 316 | 1.0 | 5.0 | 0.00 | 0.00 | 0.00 | 38 | 989.4 |
| 20260503220505 | 68 | 296 | 2.0 | 5.0 | 0.00 | 0.00 | 0.00 | 36 | 989.4 |
| 20260503220005 | 68 | 231 | 2.0 | 3.0 | 0.00 | 0.00 | 0.00 | 38 | 989.4 |
| 20260503215504 | 68 | 178 | 1.0 | 3.0 | 0.00 | 0.00 | 0.00 | 39 | 989.5 |
| 20260503215005 | 68 | 293 | 2.0 | 5.0 | 0.00 | 0.00 | 0.00 | 37 | 989.5 |
| 20260503214504 | 68 | 260 | 1.0 | 2.0 | 0.00 | 0.00 | 0.00 | 37 | 989.5 |
| 20260503214005 | 68 | 327 | 2.0 | 5.0 | 0.00 | 0.00 | 0.00 | 37 | 989.5 |
| 20260503213504 | 69 | 281 | 2.0 | 5.0 | 0.00 | 0.00 | 0.00 | 36 | 989.7 |
| 20260503213005 | 69 | 272 | 2.0 | 6.0 | 0.00 | 0.00 | 0.00 | 36 | 989.8 |
| 20260503212504 | 69 | 318 | 1.0 | 2.0 | 0.00 | 0.00 | 0.00 | 37 | 989.7 |
| 20260503212004 | 69 | 234 | 2.0 | 3.0 | 0.00 | 0.00 | 0.00 | 38 | 989.8 |
| 20260503211505 | 68 | 301 | 1.0 | 5.0 | 0.00 | 0.00 | 0.00 | 41 | 989.9 |
| 20260503211005 | 68 | 194 | 2.0 | 5.0 | 0.00 | 0.00 | 0.00 | 37 | 990.0 |
| 20260503210504 | 68 | 279 | 2.0 | 3.0 | 0.00 | 0.00 | 0.00 | 38 | 990.0 |
| 20260503210005 | 68 | 206 | 2.0 | 3.0 | 0.00 | 0.00 | 0.00 | 39 | 990.1 |
| 20260503205004 | 68 | 298 | 1.0 | 6.0 | 0.00 | 0.00 | 0.00 | 40 | 990.2 |
| 20260503204504 | 68 | 257 | 1.0 | 5.0 | 0.00 | 0.00 | 0.00 | 38 | 990.3 |
| 20260503204005 | 68 | 339 | 3.0 | 6.0 | 0.00 | 0.00 | 0.00 | 38 | 990.4 |
| 20260503203505 | 68 | 304 | 2.0 | 5.0 | 0.00 | 0.00 | 0.00 | 40 | 990.6 |
| 20260503203004 | 68 | 156 | 1.0 | 5.0 | 0.00 | 0.00 | 0.00 | 38 | 990.7 |
| 20260503202505 | 69 | 200 | 1.0 | 6.0 | 0.00 | 0.00 | 0.00 | 38 | 990.7 |
| 20260503202004 | 69 | 349 | 2.0 | 5.0 | 0.00 | 0.00 | 0.00 | 38 | 990.8 |
| 20260503201504 | 68 | 150 | 1.0 | 5.0 | 0.00 | 0.00 | 0.00 | 38 | 991.0 |
| 20260503201004 | 68 | 220 | 3.0 | 5.0 | 0.00 | 0.00 | 0.00 | 37 | 991.0 |
| 20260503200504 | 68 | 232 | 2.0 | 3.0 | 0.00 | 0.00 | 0.00 | 37 | 991.0 |
| 20260503200004 | 68 | 316 | 1.0 | 3.0 | 0.00 | 0.00 | 0.00 | 38 | 991.1 |
| 20260503195505 | 67 | 357 | 1.0 | 5.0 | 0.00 | 0.00 | 0.00 | 39 | 991.3 |
| 20260503195004 | 67 | 79 | 2.0 | 7.0 | 0.00 | 0.00 | 0.00 | 39 | 991.4 |
| 20260503194504 | 67 | 303 | 3.0 | 7.0 | 0.00 | 0.00 | 0.00 | 37 | 991.4 |
| 20260503194004 | 67 | 311 | 3.0 | 6.0 | 0.00 | 0.00 | 0.00 | 38 | 991.6 |
| 20260503193504 | 67 | 264 | 1.0 | 5.0 | 0.00 | 0.00 | 0.00 | 37 | 991.6 |
| 20260503193004 | 67 | 185 | 3.0 | 7.0 | 0.00 | 0.00 | 0.00 | 37 | 991.8 |
| 20260503192505 | 67 | 184 | 2.0 | 5.0 | 0.00 | 0.00 | 0.00 | 38 | 991.8 |
| 20260503191504 | 67 | 343 | 2.0 | 6.0 | 0.00 | 0.00 | 0.00 | 36 | 991.9 |
| 20260503191004 | 67 | 281 | 2.0 | 5.0 | 0.00 | 0.00 | 0.00 | 38 | 992.1 |
| 20260503190505 | 66 | 5 | 2.0 | 5.0 | 0.00 | 0.00 | 0.00 | 37 | 992.1 |
| 20260503185504 | 66 | 315 | 1.0 | 5.0 | 0.00 | 0.00 | 0.00 | 38 | 992.1 |
| 20260503185004 | 66 | 282 | 1.0 | 5.0 | 0.00 | 0.00 | 0.00 | 40 | 992.3 |
| 20260503183503 | 65 | 304 | 2.0 | 7.0 | 0.00 | 0.00 | 0.00 | 41 | 992.6 |
| 20260503183004 | 65 | 221 | 1.0 | 3.0 | 0.00 | 0.00 | 0.00 | 39 | 992.7 |
| 20260503182504 | 65 | 264 | 2.0 | 6.0 | 0.00 | 0.00 | 0.00 | 39 | 992.6 |
| 20260503182005 | 64 | 330 | 1.0 | 3.0 | 0.00 | 0.00 | 0.00 | 39 | 992.7 |
| 20260503181505 | 64 | 224 | 1.0 | 3.0 | 0.00 | 0.00 | 0.00 | 39 | 992.7 |
| 20260503181005 | 64 | 271 | 2.0 | 5.0 | 0.00 | 0.00 | 0.00 | 40 | 992.7 |
| 20260503180005 | 63 | 251 | 1.0 | 3.0 | 0.00 | 0.00 | 0.00 | 39 | 992.8 |
| 20260503175503 | 63 | 163 | 1.0 | 2.0 | 0.00 | 0.00 | 0.00 | 39 | 992.9 |
| 20260503175004 | 63 | 307 | 1.0 | 2.0 | 0.00 | 0.00 | 0.00 | 41 | 992.9 |
| 20260503174005 | 62 | 187 | 1.0 | 3.0 | 0.00 | 0.00 | 0.00 | 40 | 993.0 |
| 20260503173504 | 62 | 243 | 2.0 | 5.0 | 0.00 | 0.00 | 0.00 | 39 | 993.1 |
| 20260503173004 | 61 | 2 | 2.0 | 5.0 | 0.00 | 0.00 | 0.00 | 39 | 993.2 |
| 20260503172504 | 61 | 281 | 1.0 | 7.0 | 0.00 | 0.00 | 0.00 | 45 | 993.3 |
| 20260503172004 | 61 | 163 | 2.0 | 5.0 | 0.00 | 0.00 | 0.00 | 45 | 993.3 |
| 20260503171505 | 61 | 200 | 1.0 | 3.0 | 0.00 | 0.00 | 0.00 | 43 | 993.4 |
| 20260503170504 | 61 | 232 | 1.0 | 2.0 | 0.00 | 0.00 | 0.00 | 44 | 993.4 |
| 20260503151005 | 55 | 166 | 1.0 | 3.0 | 0.00 | 0.00 | 0.00 | 48 | 994.4 |
| 20260503150504 | 55 | 328 | 1.0 | 3.0 | 0.00 | 0.00 | 0.00 | 47 | 994.4 |
| 20260503131004 | 44 | 152 | 0.0 | 1.0 | 0.00 | 0.00 | 0.00 | 97 | 994.4 |
| 20260503130504 | 44 | 141 | 0.0 | 1.0 | 0.00 | 0.00 | 0.00 | 97 | 994.3 |
| 20260503110504 | 39 | 154 | 0.0 | 1.0 | 0.00 | 0.00 | 0.00 | 96 | 993.1 |